Year,Month,Day,Hour,Minute,Value (Times are PST for temperature in C)
2023,05,15,06,32,16.30
2023,05,15,06,33,16.40
2023,05,15,06,34,16.40
2023,05,15,06,35,16.40
2023,05,15,06,36,16.40
2023,05,15,06,37,16.40
2023,05,15,06,38,16.50
2023,05,15,06,39,16.50
2023,05,15,06,40,16.50
2023,05,15,06,41,16.60
2023,05,15,06,42,16.60
2023,05,15,06,43,16.60
2023,05,15,06,44,16.60
2023,05,15,06,45,16.70
2023,05,15,06,46,16.70
2023,05,15,06,47,16.70
2023,05,15,06,48,16.80
2023,05,15,06,49,16.80
2023,05,15,06,50,16.90
2023,05,15,06,51,16.90
2023,05,15,06,52,16.90
2023,05,15,06,53,17.00
2023,05,15,06,54,17.00
2023,05,15,06,55,17.10
2023,05,15,06,56,17.10
2023,05,15,06,57,17.20
2023,05,15,06,58,17.30
2023,05,15,06,59,17.30
2023,05,15,07,00,17.40
2023,05,15,07,01,17.40
2023,05,15,07,02,17.50
2023,05,15,07,03,17.50
2023,05,15,07,04,17.60
2023,05,15,07,05,17.60
2023,05,15,07,06,17.70
2023,05,15,07,07,17.80
2023,05,15,07,08,17.80
2023,05,15,07,09,17.90
2023,05,15,07,10,18.00
2023,05,15,07,11,18.10
2023,05,15,07,12,18.10
2023,05,15,07,13,18.20
2023,05,15,07,14,18.30
2023,05,15,07,15,18.30
2023,05,15,07,16,18.40
2023,05,15,07,17,18.50
2023,05,15,07,18,18.50
2023,05,15,07,19,18.60
2023,05,15,07,20,18.70
2023,05,15,07,21,18.70
2023,05,15,07,22,18.80
2023,05,15,07,23,18.80
2023,05,15,07,24,18.90
2023,05,15,07,25,19.00
2023,05,15,07,26,19.10
2023,05,15,07,27,19.10
2023,05,15,07,28,19.20
2023,05,15,07,29,19.20
2023,05,15,07,30,19.30
2023,05,15,07,31,19.40
2023,05,15,07,32,19.50
2023,05,15,07,33,19.50
2023,05,15,07,34,19.60
2023,05,15,07,35,19.70
2023,05,15,07,36,19.70
2023,05,15,07,37,19.80
2023,05,15,07,38,19.80
2023,05,15,07,39,19.90
2023,05,15,07,40,20.00
2023,05,15,07,41,20.10
2023,05,15,07,42,20.10
2023,05,15,07,43,20.20
2023,05,15,07,44,20.20
2023,05,15,07,45,20.30
2023,05,15,07,46,20.30
2023,05,15,07,47,20.40
2023,05,15,07,48,20.50
2023,05,15,07,49,20.60
2023,05,15,07,50,20.60
2023,05,15,07,51,20.70
2023,05,15,07,52,20.70
2023,05,15,07,53,20.80
2023,05,15,07,54,20.80
2023,05,15,07,55,20.90
2023,05,15,07,56,21.00
2023,05,15,07,57,21.00
2023,05,15,07,58,21.10
2023,05,15,07,59,21.10
2023,05,15,08,00,21.20
2023,05,15,08,01,21.20
2023,05,15,08,02,21.30
2023,05,15,08,03,21.30
2023,05,15,08,04,21.40
2023,05,15,08,05,21.50
2023,05,15,08,06,21.50
2023,05,15,08,07,21.60
2023,05,15,08,08,21.60
2023,05,15,08,09,21.70
2023,05,15,08,10,21.70
2023,05,15,08,11,21.80
2023,05,15,08,12,21.90
2023,05,15,08,13,21.90
2023,05,15,08,14,22.00
2023,05,15,08,15,22.00
2023,05,15,08,16,22.10
2023,05,15,08,17,22.10
2023,05,15,08,18,22.20
2023,05,15,08,19,22.20
2023,05,15,08,20,22.30
2023,05,15,08,21,22.40
2023,05,15,08,22,22.40
2023,05,15,08,23,22.50
2023,05,15,08,24,22.60
2023,05,15,08,25,22.60
2023,05,15,08,26,22.60
2023,05,15,08,27,22.70
2023,05,15,08,28,22.70
2023,05,15,08,29,22.80
2023,05,15,08,30,22.80
2023,05,15,08,31,22.80
2023,05,15,08,32,22.80
2023,05,15,08,33,22.90
2023,05,15,08,34,22.90
2023,05,15,08,35,22.90
2023,05,15,08,36,22.90
2023,05,15,08,37,22.90
2023,05,15,08,38,22.90
2023,05,15,08,39,22.90
2023,05,15,08,40,22.90
2023,05,15,08,41,22.90
2023,05,15,08,42,23.00
2023,05,15,08,43,23.10
2023,05,15,08,44,23.10
2023,05,15,08,45,23.20
2023,05,15,08,46,23.20
2023,05,15,08,47,23.30
2023,05,15,08,48,23.30
2023,05,15,08,49,23.30
2023,05,15,08,50,23.40
2023,05,15,08,51,23.50
2023,05,15,08,52,23.50
2023,05,15,08,53,23.60
2023,05,15,08,54,23.60
2023,05,15,08,55,23.70
2023,05,15,08,56,23.70
2023,05,15,08,57,23.70
2023,05,15,08,58,23.80
2023,05,15,08,59,23.80
2023,05,15,09,00,23.80
2023,05,15,09,01,23.90
2023,05,15,09,02,23.90
2023,05,15,09,03,24.00
2023,05,15,09,04,24.00
2023,05,15,09,05,24.10
2023,05,15,09,06,24.10
2023,05,15,09,07,24.20
2023,05,15,09,08,24.20
2023,05,15,09,09,24.20
2023,05,15,09,10,24.30
2023,05,15,09,11,24.30
2023,05,15,09,12,24.40
2023,05,15,09,13,24.40
2023,05,15,09,14,24.40
2023,05,15,09,15,24.50
2023,05,15,09,16,24.60
2023,05,15,09,17,24.60
2023,05,15,09,18,24.70
2023,05,15,09,19,24.70
2023,05,15,09,20,24.80
2023,05,15,09,21,24.90
2023,05,15,09,22,24.90
2023,05,15,09,23,25.00
2023,05,15,09,24,25.10
2023,05,15,09,25,25.20
2023,05,15,09,26,25.40
2023,05,15,09,27,25.50
2023,05,15,09,28,25.60
2023,05,15,09,29,25.70
2023,05,15,09,30,25.80
2023,05,15,09,31,25.80
2023,05,15,09,32,25.80
2023,05,15,09,33,25.90
2023,05,15,09,34,25.90
2023,05,15,09,35,26.00
2023,05,15,09,36,26.00
2023,05,15,09,37,26.10
2023,05,15,09,38,26.10
2023,05,15,09,39,26.10
2023,05,15,09,40,26.20
2023,05,15,09,41,26.20
2023,05,15,09,42,26.20
2023,05,15,09,43,26.20
2023,05,15,09,44,26.30
2023,05,15,09,45,26.30
2023,05,15,09,46,26.30
2023,05,15,09,47,26.30
2023,05,15,09,48,26.40
2023,05,15,09,49,26.40
2023,05,15,09,50,26.50
2023,05,15,09,51,26.60
2023,05,15,09,52,26.60
2023,05,15,09,53,26.70
2023,05,15,09,54,26.80
2023,05,15,09,55,26.90
2023,05,15,09,56,26.90
2023,05,15,09,57,27.00
2023,05,15,09,58,27.10
2023,05,15,09,59,27.10
2023,05,15,10,00,27.10
2023,05,15,10,01,27.20
2023,05,15,10,02,27.20
2023,05,15,10,03,27.20
2023,05,15,10,04,27.20
2023,05,15,10,05,27.30
2023,05,15,10,06,27.30
2023,05,15,10,07,27.30
2023,05,15,10,08,27.30
2023,05,15,10,09,27.40
2023,05,15,10,10,27.40
2023,05,15,10,11,27.40
2023,05,15,10,12,27.50
2023,05,15,10,13,27.60
2023,05,15,10,14,27.60
2023,05,15,10,15,27.70
2023,05,15,10,16,27.80
2023,05,15,10,17,27.90
2023,05,15,10,18,28.00
2023,05,15,10,19,28.00
2023,05,15,10,20,28.10
2023,05,15,10,21,28.10
2023,05,15,10,22,28.10
2023,05,15,10,23,28.10
2023,05,15,10,24,28.10
2023,05,15,10,25,28.10
2023,05,15,10,26,28.20
2023,05,15,10,27,28.20
2023,05,15,10,28,28.30
2023,05,15,10,29,28.30
2023,05,15,10,30,28.30
2023,05,15,10,31,28.30
2023,05,15,10,32,28.30
2023,05,15,10,33,28.20
2023,05,15,10,34,28.20
2023,05,15,10,35,28.10
2023,05,15,10,36,28.10
2023,05,15,10,37,28.10
2023,05,15,10,38,28.10
2023,05,15,10,39,28.10
2023,05,15,10,40,28.20
2023,05,15,10,41,28.20
2023,05,15,10,42,28.30
2023,05,15,10,43,28.40
2023,05,15,10,44,28.40
2023,05,15,10,45,28.40
2023,05,15,10,46,28.50
2023,05,15,10,47,28.50
2023,05,15,10,48,28.50
2023,05,15,10,49,28.60
2023,05,15,10,50,28.60
2023,05,15,10,51,28.60
2023,05,15,10,52,28.60
2023,05,15,10,53,28.70
2023,05,15,10,54,28.70
2023,05,15,10,55,28.70
2023,05,15,10,56,28.70
2023,05,15,10,57,28.80
2023,05,15,10,58,28.80
2023,05,15,10,59,28.90
2023,05,15,11,00,29.00
2023,05,15,11,01,29.20
2023,05,15,11,02,29.30
2023,05,15,11,03,29.40
2023,05,15,11,04,29.50
2023,05,15,11,05,29.60
2023,05,15,11,06,29.60
2023,05,15,11,07,29.60
2023,05,15,11,08,29.70
2023,05,15,11,09,29.70
2023,05,15,11,10,29.70
2023,05,15,11,11,29.80
2023,05,15,11,12,29.90
2023,05,15,11,13,30.00
2023,05,15,11,14,30.10
2023,05,15,11,15,30.10
2023,05,15,11,16,30.10
2023,05,15,11,17,30.10
2023,05,15,11,18,30.10
2023,05,15,11,19,30.00
2023,05,15,11,20,30.00
2023,05,15,11,21,30.00
2023,05,15,11,22,29.90
2023,05,15,11,23,30.00
2023,05,15,11,24,29.90
2023,05,15,11,25,29.90
2023,05,15,11,26,29.90
2023,05,15,11,27,29.80
2023,05,15,11,28,29.70
2023,05,15,11,29,29.60
2023,05,15,11,30,29.60
2023,05,15,11,31,29.50
2023,05,15,11,32,29.60
2023,05,15,11,33,29.60
2023,05,15,11,34,29.70
2023,05,15,11,35,29.70
2023,05,15,11,36,29.70
2023,05,15,11,37,29.70
2023,05,15,11,38,29.70
2023,05,15,11,39,29.70
2023,05,15,11,40,29.80
2023,05,15,11,41,29.80
2023,05,15,11,42,29.80
2023,05,15,11,43,29.80
2023,05,15,11,44,29.80
2023,05,15,11,45,29.80
2023,05,15,11,46,29.80
2023,05,15,11,47,29.80
2023,05,15,11,48,29.80
2023,05,15,11,49,29.80
2023,05,15,11,50,29.80
2023,05,15,11,51,29.80
2023,05,15,11,52,29.80
2023,05,15,11,53,29.70
2023,05,15,11,54,29.70
2023,05,15,11,55,29.70
2023,05,15,11,56,29.60
2023,05,15,11,57,29.60
2023,05,15,11,58,29.60
2023,05,15,11,59,29.60
2023,05,15,12,00,29.60
2023,05,15,12,01,29.60
2023,05,15,12,02,29.60
2023,05,15,12,03,29.60
2023,05,15,12,04,29.60
2023,05,15,12,05,29.60
2023,05,15,12,06,29.70
2023,05,15,12,07,29.90
2023,05,15,12,08,30.00
2023,05,15,12,09,30.10
2023,05,15,12,10,30.10
2023,05,15,12,11,30.10
2023,05,15,12,12,30.20
2023,05,15,12,13,30.30
2023,05,15,12,14,30.40
2023,05,15,12,15,30.50
2023,05,15,12,16,30.50
2023,05,15,12,17,30.60
2023,05,15,12,18,30.60
2023,05,15,12,19,30.60
2023,05,15,12,20,30.70
2023,05,15,12,21,30.70
2023,05,15,12,22,30.70
2023,05,15,12,23,30.70
2023,05,15,12,24,30.70
2023,05,15,12,25,30.70
2023,05,15,12,26,30.80
2023,05,15,12,27,30.80
2023,05,15,12,28,30.80
2023,05,15,12,29,30.70
2023,05,15,12,30,30.70
2023,05,15,12,31,30.70
2023,05,15,12,32,30.70
2023,05,15,12,33,30.70
2023,05,15,12,34,30.70
2023,05,15,12,35,30.70
2023,05,15,12,36,30.70
2023,05,15,12,37,30.70
2023,05,15,12,38,30.80
2023,05,15,12,39,30.80
2023,05,15,12,40,30.70
2023,05,15,12,41,30.70
2023,05,15,12,42,30.60
2023,05,15,12,43,30.50
2023,05,15,12,44,30.50
2023,05,15,12,45,30.40
2023,05,15,12,46,30.30
2023,05,15,12,47,30.20
2023,05,15,12,48,30.20
2023,05,15,12,49,30.20
2023,05,15,12,50,30.10
2023,05,15,12,51,30.10
2023,05,15,12,52,30.00
2023,05,15,12,53,29.90
2023,05,15,12,54,29.90
2023,05,15,12,55,30.00
2023,05,15,12,56,30.00
2023,05,15,12,57,30.00
2023,05,15,12,58,30.00
2023,05,15,12,59,30.10
2023,05,15,13,00,30.00
2023,05,15,13,01,30.00
2023,05,15,13,02,30.10
2023,05,15,13,03,30.10
2023,05,15,13,04,30.20
2023,05,15,13,05,30.20
2023,05,15,13,06,30.20
2023,05,15,13,07,30.20
2023,05,15,13,08,30.20
2023,05,15,13,09,30.20
2023,05,15,13,10,30.10
2023,05,15,13,11,30.10
2023,05,15,13,12,30.10
2023,05,15,13,13,30.10
2023,05,15,13,14,30.20
2023,05,15,13,15,30.30
2023,05,15,13,16,30.30
2023,05,15,13,17,30.40
2023,05,15,13,18,30.40
2023,05,15,13,19,30.40
2023,05,15,13,20,30.40
2023,05,15,13,21,30.40
2023,05,15,13,22,30.40
2023,05,15,13,23,30.50
2023,05,15,13,24,30.50
2023,05,15,13,25,30.50
2023,05,15,13,26,30.50
2023,05,15,13,27,30.50
2023,05,15,13,28,30.50
2023,05,15,13,29,30.50
2023,05,15,13,30,30.60
2023,05,15,13,31,30.60
2023,05,15,13,32,30.60
2023,05,15,13,33,30.60
2023,05,15,13,34,30.60
2023,05,15,13,35,30.60
2023,05,15,13,36,30.60
2023,05,15,13,37,30.50
2023,05,15,13,38,30.50
2023,05,15,13,39,30.60
2023,05,15,13,40,30.60
2023,05,15,13,41,30.60
2023,05,15,13,42,30.70
2023,05,15,13,43,30.70
2023,05,15,13,44,30.90
2023,05,15,13,45,30.90
2023,05,15,13,46,30.90
2023,05,15,13,47,31.00
2023,05,15,13,48,31.10
2023,05,15,13,49,31.10
2023,05,15,13,50,31.20
2023,05,15,13,51,31.20
2023,05,15,13,52,31.20
2023,05,15,13,53,31.20
2023,05,15,13,54,31.30
2023,05,15,13,55,31.30
2023,05,15,13,56,31.40
2023,05,15,13,57,31.50
2023,05,15,13,58,31.60
2023,05,15,13,59,31.70
2023,05,15,14,00,31.80
2023,05,15,14,01,31.90
2023,05,15,14,02,31.90
2023,05,15,14,03,31.90
2023,05,15,14,04,31.90
2023,05,15,14,05,31.90
2023,05,15,14,06,31.90
2023,05,15,14,07,32.00
2023,05,15,14,08,32.00
2023,05,15,14,09,32.10
2023,05,15,14,10,32.10
2023,05,15,14,11,32.10
2023,05,15,14,12,32.10
2023,05,15,14,13,32.10
2023,05,15,14,14,32.10
2023,05,15,14,15,32.20
2023,05,15,14,16,32.20
2023,05,15,14,17,32.20
2023,05,15,14,18,32.20
2023,05,15,14,19,32.20
2023,05,15,14,20,32.20
2023,05,15,14,21,32.20
2023,05,15,14,22,32.20
2023,05,15,14,23,32.30
2023,05,15,14,24,32.30
2023,05,15,14,25,32.30
2023,05,15,14,26,32.20
2023,05,15,14,27,32.20
2023,05,15,14,28,32.20
2023,05,15,14,29,32.20
2023,05,15,14,30,32.20
2023,05,15,14,31,32.20
2023,05,15,14,32,32.20
2023,05,15,14,33,32.20
2023,05,15,14,34,32.20
2023,05,15,14,35,32.30
2023,05,15,14,36,32.30
2023,05,15,14,37,32.40
2023,05,15,14,38,32.40
2023,05,15,14,39,32.50
2023,05,15,14,40,32.50
2023,05,15,14,41,32.50
2023,05,15,14,42,32.60
2023,05,15,14,43,32.50
2023,05,15,14,44,32.60
2023,05,15,14,45,32.60
2023,05,15,14,46,32.50
2023,05,15,14,47,32.40
2023,05,15,14,48,32.30
2023,05,15,14,49,32.20
2023,05,15,14,50,32.00
2023,05,15,14,51,32.00
2023,05,15,14,52,32.00
2023,05,15,14,53,31.90
2023,05,15,14,54,31.90
2023,05,15,14,55,32.00
2023,05,15,14,56,32.00
2023,05,15,14,57,32.10
2023,05,15,14,58,32.10
2023,05,15,14,59,32.10
2023,05,15,15,00,32.10
2023,05,15,15,01,32.10
2023,05,15,15,02,32.20
2023,05,15,15,03,32.30
2023,05,15,15,04,32.30
2023,05,15,15,05,32.30
2023,05,15,15,06,32.30
2023,05,15,15,07,32.30
2023,05,15,15,08,32.30
2023,05,15,15,09,32.30
2023,05,15,15,10,32.40
2023,05,15,15,11,32.40
2023,05,15,15,12,32.40
2023,05,15,15,13,32.50
2023,05,15,15,14,32.50
2023,05,15,15,15,32.50
2023,05,15,15,16,32.60
2023,05,15,15,17,32.60
2023,05,15,15,18,32.60
2023,05,15,15,19,32.60
2023,05,15,15,20,32.70
2023,05,15,15,21,32.60
2023,05,15,15,22,32.60
2023,05,15,15,23,32.70
2023,05,15,15,24,32.70
2023,05,15,15,25,32.70
2023,05,15,15,26,32.70
2023,05,15,15,27,32.70
2023,05,15,15,28,32.80
2023,05,15,15,29,32.80
2023,05,15,15,30,32.90
2023,05,15,15,31,33.00
2023,05,15,15,32,33.00
2023,05,15,15,33,33.00
2023,05,15,15,34,33.00
2023,05,15,15,35,32.90
2023,05,15,15,36,32.90
2023,05,15,15,37,32.80
2023,05,15,15,38,32.80
2023,05,15,15,39,32.80
2023,05,15,15,40,32.80
2023,05,15,15,41,32.80
2023,05,15,15,42,32.80
2023,05,15,15,43,32.80
2023,05,15,15,44,32.90
2023,05,15,15,45,32.90
2023,05,15,15,46,32.90
2023,05,15,15,47,32.90
2023,05,15,15,48,32.90
2023,05,15,15,49,32.90
2023,05,15,15,50,33.00
2023,05,15,15,51,33.10
2023,05,15,15,52,33.10
2023,05,15,15,53,33.20
2023,05,15,15,54,33.20
2023,05,15,15,55,33.10
2023,05,15,15,56,33.00
2023,05,15,15,57,33.00
2023,05,15,15,58,32.90
2023,05,15,15,59,32.90
2023,05,15,16,00,32.80
2023,05,15,16,01,32.80
2023,05,15,16,02,32.70
2023,05,15,16,03,32.70
2023,05,15,16,04,32.70
2023,05,15,16,05,32.70
2023,05,15,16,06,32.80
2023,05,15,16,07,32.80
2023,05,15,16,08,32.80
2023,05,15,16,09,32.80
2023,05,15,16,10,32.70
2023,05,15,16,11,32.70
2023,05,15,16,12,32.70
2023,05,15,16,13,32.70
2023,05,15,16,14,32.80
2023,05,15,16,15,32.80
2023,05,15,16,16,32.80
2023,05,15,16,17,32.80
2023,05,15,16,18,32.90
2023,05,15,16,19,32.90
2023,05,15,16,20,32.90
2023,05,15,16,21,32.90
2023,05,15,16,22,32.90
2023,05,15,16,23,32.90
2023,05,15,16,24,33.00
2023,05,15,16,25,33.00
2023,05,15,16,26,33.10
2023,05,15,16,27,33.10
2023,05,15,16,28,33.10
2023,05,15,16,29,33.10
2023,05,15,16,30,33.10
2023,05,15,16,31,33.20
2023,05,15,16,32,33.20
2023,05,15,16,33,33.20
2023,05,15,16,34,33.20
2023,05,15,16,35,33.20
2023,05,15,16,36,33.20
2023,05,15,16,37,33.20
2023,05,15,16,38,33.20
2023,05,15,16,39,33.10
2023,05,15,16,40,33.00
2023,05,15,16,41,32.90
2023,05,15,16,42,32.90
2023,05,15,16,43,32.80
2023,05,15,16,44,32.70
2023,05,15,16,45,32.70
2023,05,15,16,46,32.60
2023,05,15,16,47,32.50
2023,05,15,16,48,32.50
2023,05,15,16,49,32.40
2023,05,15,16,50,32.30
2023,05,15,16,51,32.30
2023,05,15,16,52,32.30
2023,05,15,16,53,32.30
2023,05,15,16,54,32.30
2023,05,15,16,55,32.30
2023,05,15,16,56,32.30
2023,05,15,16,57,32.20
2023,05,15,16,58,32.20
2023,05,15,16,59,32.10
2023,05,15,17,00,32.10
2023,05,15,17,01,32.10
2023,05,15,17,02,32.10
2023,05,15,17,03,32.10
2023,05,15,17,04,32.20
2023,05,15,17,05,32.20
2023,05,15,17,06,32.20
2023,05,15,17,07,32.20
2023,05,15,17,08,32.20
2023,05,15,17,09,32.30
2023,05,15,17,10,32.30
2023,05,15,17,11,32.30
2023,05,15,17,12,32.40
2023,05,15,17,13,32.40
2023,05,15,17,14,32.50
2023,05,15,17,15,32.50
2023,05,15,17,16,32.40
2023,05,15,17,17,32.40
2023,05,15,17,18,32.40
2023,05,15,17,19,32.40
2023,05,15,17,20,32.40
2023,05,15,17,21,32.40
2023,05,15,17,22,32.50
2023,05,15,17,23,32.50
2023,05,15,17,24,32.50
2023,05,15,17,25,32.60
2023,05,15,17,26,32.60
2023,05,15,17,27,32.60
2023,05,15,17,28,32.60
2023,05,15,17,29,32.60
2023,05,15,17,30,32.60
2023,05,15,17,31,32.60
2023,05,15,17,32,32.60
2023,05,15,17,33,32.60
2023,05,15,17,34,32.60
2023,05,15,17,35,32.70
2023,05,15,17,36,32.70
2023,05,15,17,37,32.70
2023,05,15,17,38,32.70
2023,05,15,17,39,32.60
2023,05,15,17,40,32.60
2023,05,15,17,41,32.60
2023,05,15,17,42,32.60
2023,05,15,17,43,32.60
2023,05,15,17,44,32.50
2023,05,15,17,45,32.50
2023,05,15,17,46,32.50
2023,05,15,17,47,32.40
2023,05,15,17,48,32.40
2023,05,15,17,49,32.30
2023,05,15,17,50,32.30
2023,05,15,17,51,32.30
2023,05,15,17,52,32.30
2023,05,15,17,53,32.30
2023,05,15,17,54,32.30
2023,05,15,17,55,32.30
2023,05,15,17,56,32.30
2023,05,15,17,57,32.30
2023,05,15,17,58,32.30
2023,05,15,17,59,32.30
2023,05,15,18,00,32.30
2023,05,15,18,01,32.30
2023,05,15,18,02,32.30
2023,05,15,18,03,32.30
2023,05,15,18,04,32.30
2023,05,15,18,05,32.40
2023,05,15,18,06,32.40
2023,05,15,18,07,32.50
2023,05,15,18,08,32.50
2023,05,15,18,09,32.50
2023,05,15,18,10,32.50
2023,05,15,18,11,32.50
2023,05,15,18,12,32.50
2023,05,15,18,13,32.50
2023,05,15,18,14,32.50
2023,05,15,18,15,32.40
2023,05,15,18,16,32.40
2023,05,15,18,17,32.40
2023,05,15,18,18,32.50
2023,05,15,18,19,32.50
2023,05,15,18,20,32.50
2023,05,15,18,21,32.50
2023,05,15,18,22,32.50
2023,05,15,18,23,32.50
2023,05,15,18,24,32.40
2023,05,15,18,25,32.40
2023,05,15,18,26,32.40
2023,05,15,18,27,32.40
2023,05,15,18,28,32.40
2023,05,15,18,29,32.30
2023,05,15,18,30,32.30
2023,05,15,18,31,32.30
2023,05,15,18,32,32.30
2023,05,15,18,33,32.20
2023,05,15,18,34,32.20
2023,05,15,18,35,32.20
2023,05,15,18,36,32.20
2023,05,15,18,37,32.20
2023,05,15,18,38,32.20
2023,05,15,18,39,32.20
2023,05,15,18,40,32.10
2023,05,15,18,41,32.10
2023,05,15,18,42,32.10
2023,05,15,18,43,32.10
2023,05,15,18,44,32.00
2023,05,15,18,45,32.00
2023,05,15,18,46,32.00
2023,05,15,18,47,31.90
2023,05,15,18,48,31.90
2023,05,15,18,49,31.90
2023,05,15,18,50,31.90
2023,05,15,18,51,31.80
2023,05,15,18,52,31.80
2023,05,15,18,53,31.80
2023,05,15,18,54,31.80
2023,05,15,18,55,31.80
2023,05,15,18,56,31.80
2023,05,15,18,57,31.70
2023,05,15,18,58,31.70
2023,05,15,18,59,31.70
2023,05,15,19,00,31.70
2023,05,15,19,01,31.70
2023,05,15,19,02,31.70
2023,05,15,19,03,31.70
2023,05,15,19,04,31.60
2023,05,15,19,05,31.60
2023,05,15,19,06,31.60
2023,05,15,19,07,31.60
2023,05,15,19,08,31.60
2023,05,15,19,09,31.50
2023,05,15,19,10,31.60
2023,05,15,19,11,31.60
2023,05,15,19,12,31.60
2023,05,15,19,13,31.60
2023,05,15,19,14,31.60
2023,05,15,19,15,31.60
2023,05,15,19,16,31.60
2023,05,15,19,17,31.60
2023,05,15,19,18,31.60
2023,05,15,19,19,31.60
2023,05,15,19,20,31.60
2023,05,15,19,21,31.60
2023,05,15,19,22,31.60
2023,05,15,19,23,31.60
2023,05,15,19,24,31.60
2023,05,15,19,25,31.60
2023,05,15,19,26,31.60
2023,05,15,19,27,31.60
2023,05,15,19,28,31.60
2023,05,15,19,29,31.60
2023,05,15,19,30,31.60
2023,05,15,19,31,31.60
2023,05,15,19,32,31.60
2023,05,15,19,33,31.60
2023,05,15,19,34,31.60
2023,05,15,19,35,31.50
2023,05,15,19,36,31.50
2023,05,15,19,37,31.50
2023,05,15,19,38,31.40
2023,05,15,19,39,31.40
2023,05,15,19,40,31.40
2023,05,15,19,41,31.30
2023,05,15,19,42,31.30
2023,05,15,19,43,31.30
2023,05,15,19,44,31.20
2023,05,15,19,45,31.20
2023,05,15,19,46,31.10
2023,05,15,19,47,31.00
2023,05,15,19,48,31.00
2023,05,15,19,49,30.90
2023,05,15,19,50,30.80
2023,05,15,19,51,30.70
2023,05,15,19,52,30.60
2023,05,15,19,53,30.50
2023,05,15,19,54,30.30
2023,05,15,19,55,30.20
2023,05,15,19,56,30.00
2023,05,15,19,57,29.90
2023,05,15,19,58,29.80
2023,05,15,19,59,29.60
2023,05,15,20,00,29.50
2023,05,15,20,01,29.40
2023,05,15,20,02,29.30
2023,05,15,20,03,29.20
2023,05,15,20,04,29.10
2023,05,15,20,05,29.00
2023,05,15,20,06,28.90
2023,05,15,20,07,28.80
2023,05,15,20,08,28.70
2023,05,15,20,09,28.60
2023,05,15,20,10,28.50
2023,05,15,20,11,28.50
2023,05,15,20,12,28.40
2023,05,15,20,13,28.40
2023,05,15,20,14,28.30
2023,05,15,20,15,28.30
2023,05,15,20,16,28.20
2023,05,15,20,17,28.10
2023,05,15,20,18,28.00
2023,05,15,20,19,27.90
2023,05,15,20,20,27.90
2023,05,15,20,21,27.80
2023,05,15,20,22,27.80
2023,05,15,20,23,27.70
2023,05,15,20,24,27.70
2023,05,15,20,25,27.60
2023,05,15,20,26,27.60
2023,05,15,20,27,27.50
2023,05,15,20,28,27.40
2023,05,15,20,29,27.40
2023,05,15,20,30,27.30
2023,05,15,20,31,27.30
2023,05,15,20,32,27.20
2023,05,15,20,33,27.20
2023,05,15,20,34,27.20
2023,05,15,20,35,27.20
2023,05,15,20,36,27.20
2023,05,15,20,37,27.20
2023,05,15,20,38,27.20
2023,05,15,20,39,27.20
2023,05,15,20,40,27.20
2023,05,15,20,41,27.20
2023,05,15,20,42,27.20
2023,05,15,20,43,27.20
